Zurück zum Katalog

FENGYUN 1C DEB

AktivSSO
NORAD 30313·DEBRIS·🇨🇳 China

Gestartet May 10, 1999 von Taiyuan Satellite Launch Center

Loading…

Nächste Überflüge (nächste 24 Stunden)

TLE

AktuellSource: Space-Track

Epoche: Sep 14, 2026, 06:05 UTC

1 30313U 99025AAA 26257.25402716  .00002490  00000-0  10144-2 0  9991
2 30313  98.8698 352.0839 0055535 256.1626 128.4012 14.27545660 10145

Verfolge FENGYUN 1C DEB in Echtzeit mit AllMySat

Download on the App Store